Temperature
11 11 10 10 10 10 10 10 10 10 10 10 10 10 10 10 10 10 10 10 10 10 10 9 9 9 9 9 9 10 10 10 10 10 10 10 10 9 9 9 9 9 9
10 10 10 10 10 10 10 10 10 10 10 10 10 10 10 10 10 10 10 10 10 10 9 9 9 9 9 9 9 9 9 9 9 9 9 9 9 9 9 9 9 9 9
10 10 10 10 10 10 9 9 9 9 9 9 9 9 9 9 9 9 9 9 9 9 9 9 9 9 9 9 9 9 9 9 9 9 9 9 9 9 9 9 9 9 9
9 9 9 9 9 9 9 9 9 9 9 9 9 9 9 9 9 9 9 9 9 9 9 9 9 9 9 9 8 8 8 8 8 8 8 8 8 8 8 8 8 8 8
9 9 9 9 9 9 9 8 8 8 8 8 8 8 8 8 8 8 8 8 8 8 8 8 8 8 8 8 8 8 8 8 7 7 7 7 7 7 8 8 8 8 8
8 8 8 8 8 8 8 8 8 8 8 8 8 8 8 8 8 8 8 8 8 8 8 8 8 8 8 8 8 8 7 7 7 7 7 7 7 7 7 7 7 7 7
8 8 8 8 8 8 8 8 8 8 8 7 7 7 7 7 7 7 7 7 7 7 7 7 7 7 7 7 7 7 7 7 6 6 6 6 6 6 6 7 7 7 7
8 8 8 8 7 7 7 7 7 7 7 7 7 6 6 6 7 7 7 7 7 7 7 7 7 7 7 7 7 7 7 6 6 6 6 6 6 6 6 6 6 6 6
7 7 7 7 7 7 7 7 7 7 7 6 6 6 6 6 6 6 6 6 6 6 6 6 6 6 6 6 6 6 6 6 6 5 5 5 5 5 5 6 6 6 6
7 7 7 7 7 7 6 6 6 6 6 6 6 6 6 6 5 5 6 6 6 6 6 6 6 6 6 6 6 6 6 6 5 5 5 5 5 5 5 5 5 5 6
7 6 6 6 6 6 6 6 6 6 6 6 5 5 5 5 5 5 5 5 5 5 5 5 5 5 5 5 5 5 5 5 5 5 5 5 5 5 5 5 5 5 5
6 6 6 6 6 6 5 5 5 5 5 5 5 5 5 5 5 4 4 4 4 5 5 5 5 5 5 5 5 5 5 5 5 4 4 4 4 4 4 4 4 4 4
6 6 6 5 5 5 5 5 5 5 5 5 4 4 4 4 4 4 4 4 4 4 4 4 4 4 4 4 4 4 4 4 4 4 4 4 4 4 4 4 4 4 4
6 5 5 5 5 5 5 4 4 4 4 4 4 4 4 4 3 3 3 3 3 3 3 4 4 4 4 4 4 4 4 4 3 3 3 3 3 3 3 3 3 3 4
5 5 5 5 4 4 4 4 4 4 4 3 3 3 3 3 3 3 3 3 2 2 2 3 3 3 3 3 3 3 3 3 3 3 3 3 3 3 3 3 3 3 3
5 5 5 4 4 4 4 3 3 3 3 3 3 3 3 3 3 2 2 2 2 2 2 2 2 3 3 3 3 3 3 3 3 3 3 3 3 2 3 3 3 3 3
4 4 4 4 4 4 3 3 3 3 3 3 3 2 2 2 2 2 2 2 1 1 1 2 2 2 2 2 2 2 2 2 2 2 2 2 2 2 2 2 2 2 2
4 4 4 4 3 3 3 3 3 3 2 2 2 2 2 2 2 2 1 1 1 1 1 1 2 2 2 2 2 2 2 1 2 2 2 2 2 2 2 2 2 2 2
4 4 3 3 3 3 3 3 2 2 2 2 2 2 2 2 1 1 1 1 1 1 0 0 1 1 1 1 1 1 1 1 1 1 1 1 1 1 2 2 2 2 2
4 3 3 3 3 3 2 2 2 2 2 2 2 1 1 1 1 1 1 1 0 0 0 0 0 0 0 0 0 0 1 1 1 1 1 1 1 1 1 1 1 1 1
3 3 3 3 2 2 2 2 2 2 1 1 1 1 1 1 0 0 0 0 0 -0 -0 -0 -0 -0 -0 -0 -0 -0 -0 0 1 0 0 1 1 1 1 1 1 1 1
3 2 2 2 2 2 2 1 1 1 1 1 1 1 1 0 0 -0 -0 -0 -0 -0 -0 -0 -1 -1 -1 -1 -1 -1 -1 -1 -1 -0 -0 -0 -0 0 0 1 1 1 1
2 2 2 2 2 2 1 1 1 1 1 1 0 0 0 0 -0 -0 -0 -1 -1 -1 -1 -1 -1 -1 -1 -1 -1 -1 -1 -1 -1 -1 -1 -1 -0 -0 0 0 0 0 0
2 2 2 1 1 1 1 0 0 0 0 0 0 0 -0 -0 -0 -1 -1 -1 -1 -1 -1 -1 -1 -1 -1 -1 -1 -2 -2 -2 -1 -1 -2 -2 -1 -1 -0 -0 -0 0 0
1 1 1 1 1 1 0 -0 -0 -0 -0 -0 -0 -0 -1 -1 -1 -1 -1 -1 -1 -1 -1 -1 -2 -2 -2 -2 -2 -2 -2 -2 -2 -2 -2 -2 -2 -1 -1 -0 -0 -0 -0
1 0 0 0 -0 -0 -1 -1 -1 -1 -1 -1 -1 -1 -1 -1 -1 -1 -1 -1 -1 -1 -1 -1 -2 -2 -2 -2 -2 -2 -2 -3 -3 -3 -2 -2 -2 -2 -2 -1 -1 -1 -1
Wind_Speed
2 2 1 1 1 1 2 1 1 1 1 1 0 0 1 1 1 2 2 3 3 3 3 3 3 3 3 4 4 5 5 4 4 4 4 5 5 5 5 6 6 6 6
3 2 1 1 1 1 1 2 1 1 0 1 1 1 1 2 2 2 3 3 3 3 3 3 3 3 4 4 4 5 5 6 5 4 4 5 5 6 6 6 6 7 7
3 2 1 1 1 1 1 2 1 1 1 1 1 1 1 1 2 2 2 2 2 2 3 3 4 4 5 5 5 6 6 6 5 4 4 5 5 6 6 7 7 7 7
3 3 1 1 1 1 2 2 1 1 0 1 1 2 1 1 1 2 1 2 2 2 3 4 4 5 5 6 6 6 6 6 6 6 5 6 6 7 7 7 7 7 7
4 3 1 1 1 1 1 1 1 1 1 0 1 2 2 1 1 1 1 2 2 2 2 3 5 6 6 7 7 7 7 7 6 6 6 7 7 8 7 7 7 8 8
3 3 2 1 2 1 1 1 1 0 1 1 1 2 2 2 1 1 2 1 2 2 2 2 3 5 6 7 7 8 8 8 8 7 7 7 8 8 8 8 8 8 8
4 3 2 1 2 2 2 2 1 1 0 0 1 2 3 3 2 2 1 1 1 2 2 2 2 3 4 6 7 7 8 9 9 8 8 8 9 9 9 8 8 8 9
4 4 3 2 2 1 2 1 1 1 0 0 1 1 2 3 2 2 1 1 1 1 1 2 2 3 3 3 5 7 8 9 9 9 8 8 9 9 9 8 9 9 9
3 3 4 3 3 3 3 3 2 2 2 1 0 2 1 3 3 3 2 2 1 2 2 2 3 4 4 3 4 6 8 9 10 9 9 9 10 10 10 9 9 10 10
3 4 4 3 3 2 3 3 2 2 2 2 1 1 1 2 1 2 3 2 2 3 3 3 3 4 4 4 5 7 8 9 9 9 9 9 10 10 10 10 10 10 11
3 3 4 3 3 2 3 3 2 2 2 2 2 1 1 1 1 2 4 3 3 3 3 3 3 3 4 5 5 7 8 9 9 9 9 9 10 10 10 10 10 11 12
2 3 3 3 3 2 3 3 3 3 3 3 2 2 2 2 2 2 3 4 4 4 4 3 3 3 4 5 6 8 8 8 9 9 9 9 9 10 10 11 11 11 12
2 4 3 3 3 3 4 3 3 3 3 3 3 3 3 3 2 2 2 3 4 3 3 3 3 4 4 5 6 8 8 8 9 9 9 9 10 10 11 11 12 12 12
4 4 4 4 4 4 3 3 2 3 3 3 4 4 3 3 2 2 2 2 3 3 3 4 3 3 4 5 7 8 7 8 9 10 10 10 10 11 11 11 12 12 12
3 4 4 3 3 3 4 3 3 3 3 3 3 3 3 3 3 3 2 3 3 4 5 4 3 3 5 5 7 6 6 8 10 10 10 10 11 11 11 12 12 12 12
4 4 4 4 3 3 3 4 3 3 4 4 3 3 3 3 2 2 3 3 3 4 5 3 4 4 5 5 7 6 7 9 10 10 11 11 11 11 11 12 12 12 12
5 5 5 5 4 4 4 4 4 4 4 4 4 4 4 4 3 3 3 3 3 3 6 5 3 3 3 3 5 6 7 7 8 10 11 11 11 11 10 11 11 12 12
5 5 5 4 5 5 4 5 5 5 5 5 5 4 5 4 4 3 3 4 4 4 5 7 5 3 3 3 3 4 5 6 7 10 11 11 11 11 11 11 11 12 12
4 4 4 5 5 5 5 5 5 5 6 6 5 6 6 5 5 4 4 4 4 4 4 5 5 3 3 3 3 4 4 4 6 8 10 10 11 11 11 11 12 11 11
4 4 4 4 5 5 5 5 5 5 5 6 6 6 6 6 6 6 5 5 4 4 4 4 5 3 3 2 2 3 4 4 4 5 7 8 10 11 11 11 11 10 11
3 4 3 3 3 3 4 4 5 5 5 5 5 6 6 7 9 7 6 5 5 4 4 4 4 4 3 2 3 2 4 4 5 3 4 5 6 6 7 10 10 10 11
2 2 3 3 4 4 5 6 5 4 5 5 6 5 6 7 9 10 11 9 7 6 5 5 5 5 5 4 3 3 3 4 4 2 3 6 4 5 6 6 10 10 11
2 2 3 3 4 4 6 6 6 4 4 5 5 5 5 6 7 6 8 9 9 9 8 6 6 7 5 5 4 4 4 4 6 4 4 5 4 6 6 8 11 10 10
2 2 3 3 3 4 6 6 5 4 4 5 5 5 5 5 5 5 5 5 6 6 7 7 7 7 5 4 5 5 5 5 5 4 2 4 4 5 6 7 9 9 8
2 2 3 3 3 5 6 6 4 2 3 4 4 4 5 5 8 7 5 5 5 5 6 8 8 7 7 7 5 2 2 3 5 4 2 2 3 5 4 4 6 8 7
3 2 3 3 4 4 6 6 4 2 3 3 3 4 6 7 8 8 6 5 6 5 4 3 4 5 5 6 6 4 4 4 4 3 2 2 2 3 3 3 3 5 5
Wind_Direction
132 135 146 123 115 111 110 97 83 58 42 7 276 196 262 246 237 257 266 270 264 259 252 259 273 274 285 292 298 303 301 291 291 288 293 299 301 301 303 301 307 310 311
147 141 128 129 156 153 147 146 134 112 8 349 326 288 253 239 234 246 259 270 265 264 261 268 279 285 288 295 302 305 303 305 290 290 292 297 299 299 297 299 300 302 306
144 145 142 160 196 175 141 129 110 108 87 8 313 303 285 257 246 242 246 252 255 268 271 276 277 287 294 296 298 300 305 309 298 293 296 297 299 301 297 294 295 296 300
140 137 140 204 207 148 134 150 158 136 125 330 315 307 311 301 267 242 220 208 215 247 271 272 277 285 292 296 296 300 303 300 299 294 293 294 295 293 294 296 294 294 298
146 141 156 175 140 129 146 173 163 160 177 309 309 320 314 297 289 259 237 223 212 219 255 274 281 285 291 293 294 296 300 298 293 292 294 294 293 289 290 293 295 297 301
159 149 157 161 145 138 164 164 161 140 161 206 326 332 312 295 293 266 250 239 221 229 241 253 276 283 287 287 291 295 296 298 293 290 291 293 296 291 290 292 292 295 299
173 161 166 168 162 171 181 174 165 139 307 82 39 339 323 306 286 281 266 246 258 252 242 245 267 278 288 286 288 292 295 296 293 286 287 290 291 290 289 289 290 293 295
181 180 173 180 183 175 167 170 145 159 275 98 121 24 317 319 311 302 287 252 263 300 276 261 258 269 278 289 292 292 294 298 298 291 289 287 285 286 290 288 288 291 294
187 184 183 178 182 181 196 201 183 176 200 262 212 154 181 239 300 299 285 271 278 285 269 272 268 272 273 280 287 286 291 295 298 295 293 292 288 285 283 287 289 288 291
188 188 183 184 186 189 198 208 201 200 179 214 263 254 219 189 218 288 301 296 290 276 273 282 280 272 274 285 283 284 287 289 294 292 296 292 289 289 287 285 289 293 295
193 189 186 185 188 201 208 202 200 202 201 201 210 225 257 281 225 229 277 298 301 275 270 262 259 261 268 277 282 282 288 288 290 289 293 295 295 293 294 295 293 292 292
206 200 194 193 198 203 209 208 203 202 207 205 211 213 216 220 224 223 254 284 289 288 280 262 250 253 266 270 276 290 291 289 288 288 291 295 297 296 295 295 295 295 293
213 212 202 202 208 212 209 200 198 212 207 205 212 224 229 236 229 221 236 267 278 286 286 269 249 256 272 275 277 287 291 295 294 292 294 295 294 293 292 293 292 291 293
210 204 200 205 211 211 208 199 205 216 210 214 222 222 233 244 239 231 221 241 284 287 277 272 273 254 275 279 278 289 290 293 295 294 293 294 294 291 291 292 291 291 292
201 194 197 206 214 208 205 200 212 217 211 219 226 229 236 244 241 242 236 224 232 271 276 264 271 274 286 280 283 287 286 289 294 294 292 291 290 290 289 289 288 289 289
198 195 198 202 209 212 207 206 216 217 211 224 221 223 238 244 243 239 237 242 235 243 264 263 258 279 288 289 292 295 285 291 292 291 291 291 290 290 289 290 286 286 285
200 202 204 204 206 213 214 213 221 217 218 228 228 224 235 238 239 242 242 244 244 239 260 276 270 277 269 276 299 296 290 285 285 289 291 291 289 287 289 292 291 288 287
205 204 204 207 209 214 215 217 223 224 222 227 229 228 235 233 235 238 236 242 245 241 251 272 283 280 274 280 288 294 297 295 289 290 293 293 289 290 291 291 290 288 287
209 207 203 210 214 218 219 222 223 225 227 229 228 228 234 226 237 238 235 240 244 250 246 259 275 274 277 288 301 303 301 295 295 296 296 294 293 294 294 291 289 286 287
207 210 215 219 220 224 226 227 227 228 231 233 232 231 233 229 233 233 237 238 238 244 247 255 268 275 272 287 285 301 310 306 303 307 300 299 298 298 296 294 292 287 289
213 213 215 226 231 230 230 228 230 230 233 240 242 240 240 240 239 236 238 233 227 235 240 247 258 271 270 288 284 285 289 301 297 294 302 304 302 299 297 294 292 290 288
218 214 214 222 233 242 247 244 240 236 239 241 246 249 247 246 248 247 246 243 232 232 235 239 250 256 259 258 268 274 286 304 300 289 301 300 299 293 297 290 291 292 294
229 238 236 232 243 257 259 257 252 243 243 243 245 248 254 254 253 244 248 250 248 245 238 237 245 247 248 248 248 262 272 279 276 282 296 287 287 286 296 293 294 293 297
228 241 250 245 253 263 266 267 264 252 247 251 249 243 246 254 248 232 234 244 248 248 246 241 240 247 246 242 234 242 256 272 280 279 261 274 287 292 302 295 297 300 297
239 246 251 250 255 267 264 265 267 250 253 259 257 250 245 249 251 240 233 245 256 256 255 250 252 256 259 259 255 254 272 283 289 284 249 261 288 305 301 290 300 306 308
228 241 258 258 256 261 264 264 265 246 256 267 267 258 251 253 251 242 230 233 247 256 253 260 259 263 258 253 253 234 233 257 280 279 247 261 281 313 308 296 298 307 309
Height
1516 1516 1516 1517 1517 1517 1518 1518 1519 1519 1519 1519 1519 1519 1519 1519 1519 1519 1519 1519 1520 1520 1520 1519 1519 1519 1519 1518 1518 1517 1517 1516 1515 1515 1514 1514 1513 1513 1513 1513 1512 1511 1511
1513 1514 1514 1514 1515 1515 1516 1516 1516 1517 1517 1517 1517 1517 1517 1517 1517 1517 1517 1517 1517 1517 1517 1517 1517 1516 1516 1516 1515 1514 1514 1513 1512 1512 1511 1511 1511 1510 1510 1510 1509 1509 1508
1511 1512 1512 1512 1513 1513 1513 1514 1514 1515 1515 1515 1515 1515 1515 1515 1515 1515 1515 1515 1515 1515 1515 1514 1514 1514 1514 1513 1512 1512 1511 1510 1510 1509 1508 1508 1507 1507 1507 1507 1506 1506 1505
1509 1509 1510 1510 1510 1510 1511 1511 1512 1512 1512 1512 1512 1512 1512 1512 1512 1512 1512 1512 1512 1512 1512 1512 1511 1511 1511 1510 1509 1509 1508 1508 1507 1506 1506 1505 1505 1504 1504 1504 1503 1503 1502
1506 1507 1507 1507 1508 1508 1508 1509 1509 1509 1509 1509 1509 1509 1509 1509 1509 1509 1509 1509 1509 1509 1509 1509 1508 1508 1507 1507 1506 1506 1505 1505 1504 1504 1503 1502 1502 1502 1501 1500 1500 1499 1499
1503 1504 1505 1505 1505 1506 1506 1507 1507 1507 1507 1507 1507 1506 1507 1507 1506 1506 1506 1506 1506 1506 1506 1506 1505 1505 1504 1504 1503 1503 1502 1501 1501 1500 1499 1499 1499 1498 1497 1497 1496 1496 1496
1501 1501 1502 1502 1503 1503 1503 1504 1504 1504 1504 1504 1504 1504 1503 1503 1503 1503 1503 1503 1503 1503 1503 1502 1502 1501 1501 1500 1500 1499 1499 1498 1497 1497 1496 1495 1495 1495 1494 1493 1493 1493 1492
1497 1498 1498 1499 1500 1500 1500 1501 1501 1501 1501 1501 1501 1501 1500 1501 1500 1500 1500 1500 1500 1500 1499 1499 1498 1497 1497 1496 1496 1495 1495 1494 1494 1493 1492 1492 1491 1491 1490 1490 1489 1489 1488
1494 1495 1495 1496 1496 1497 1497 1498 1498 1498 1498 1499 1499 1500 1499 1497 1497 1496 1496 1496 1496 1496 1496 1495 1494 1494 1493 1493 1492 1491 1491 1490 1490 1489 1489 1488 1487 1486 1486 1486 1485 1485 1484
1491 1492 1492 1492 1493 1494 1494 1495 1495 1495 1495 1495 1496 1496 1497 1496 1495 1493 1493 1493 1493 1492 1492 1491 1491 1490 1489 1489 1488 1488 1487 1486 1486 1485 1484 1484 1483 1482 1482 1481 1481 1480 1479
1488 1488 1489 1489 1489 1490 1491 1491 1491 1492 1492 1492 1492 1493 1493 1493 1492 1492 1489 1489 1488 1488 1488 1487 1487 1486 1485 1484 1484 1483 1483 1482 1482 1481 1480 1479 1478 1478 1477 1476 1476 1475 1475
1484 1485 1485 1486 1486 1486 1487 1488 1488 1488 1488 1489 1489 1489 1489 1489 1489 1488 1487 1485 1484 1484 1484 1483 1483 1482 1481 1480 1480 1479 1479 1478 1477 1476 1475 1474 1474 1473 1473 1472 1471 1470 1469
1481 1481 1482 1482 1482 1483 1483 1484 1484 1484 1484 1485 1485 1485 1485 1485 1486 1485 1484 1483 1481 1480 1479 1479 1479 1478 1477 1476 1476 1475 1474 1474 1473 1472 1471 1470 1469 1469 1468 1467 1466 1465 1464
1477 1478 1478 1478 1479 1479 1479 1480 1480 1480 1480 1480 1481 1481 1481 1481 1482 1482 1481 1480 1478 1476 1475 1474 1474 1474 1473 1472 1471 1471 1470 1469 1468 1467 1466 1465 1464 1464 1462 1461 1461 1460 1459
1474 1474 1474 1475 1475 1475 1475 1476 1476 1476 1476 1476 1476 1477 1477 1477 1477 1477 1477 1477 1477 1473 1471 1470 1470 1469 1469 1468 1467 1467 1465 1465 1464 1462 1461 1460 1459 1458 1457 1456 1455 1454 1453
1470 1470 1470 1471 1471 1471 1472 1472 1472 1472 1472 1472 1472 1472 1472 1472 1472 1472 1472 1472 1472 1471 1468 1466 1466 1466 1465 1464 1464 1462 1461 1460 1459 1458 1457 1455 1454 1453 1452 1451 1450 1449 1448
1466 1466 1467 1467 1467 1467 1467 1467 1468 1468 1467 1468 1468 1468 1467 1468 1467 1467 1468 1468 1467 1467 1465 1463 1463 1462 1461 1460 1459 1458 1457 1456 1454 1453 1452 1451 1449 1448 1447 1445 1445 1444 1443
1462 1463 1463 1463 1463 1463 1463 1463 1463 1463 1463 1463 1463 1463 1463 1463 1463 1463 1463 1463 1462 1462 1462 1459 1458 1458 1457 1456 1454 1453 1453 1452 1450 1449 1448 1446 1445 1444 1442 1441 1440 1438 1437
1458 1459 1459 1459 1459 1459 1459 1460 1460 1460 1459 1459 1459 1459 1458 1458 1458 1458 1458 1458 1458 1458 1457 1456 1454 1454 1453 1452 1450 1449 1448 1447 1446 1445 1444 1442 1440 1439 1437 1436 1435 1433 1432
1454 1455 1455 1455 1455 1455 1456 1456 1456 1456 1455 1455 1455 1454 1454 1454 1453 1454 1454 1453 1453 1453 1453 1452 1450 1449 1448 1448 1446 1444 1443 1442 1441 1440 1439 1437 1436 1434 1433 1431 1430 1428 1427
1451 1451 1451 1451 1451 1451 1452 1452 1452 1452 1451 1451 1450 1450 1449 1449 1449 1449 1449 1449 1449 1449 1448 1447 1446 1445 1444 1443 1442 1441 1439 1438 1436 1436 1434 1433 1432 1430 1428 1426 1424 1423 1422
1447 1447 1447 1447 1447 1447 1447 1448 1448 1448 1447 1446 1445 1445 1445 1445 1444 1444 1445 1445 1445 1445 1444 1443 1442 1441 1440 1440 1439 1438 1436 1434 1432 1432 1430 1428 1428 1425 1424 1422 1420 1419 1418
1443 1443 1443 1443 1443 1443 1444 1444 1444 1443 1443 1442 1441 1440 1440 1440 1440 1440 1440 1440 1440 1440 1440 1440 1438 1437 1437 1436 1435 1434 1433 1431 1429 1428 1427 1424 1423 1421 1420 1418 1416 1415 1413
1439 1439 1439 1439 1439 1439 1440 1440 1439 1439 1438 1437 1437 1436 1436 1435 1435 1435 1435 1435 1435 1434 1434 1435 1434 1433 1433 1433 1432 1431 1430 1428 1426 1425 1424 1421 1419 1417 1416 1414 1413 1411 1410
1434 1435 1435 1435 1435 1435 1435 1435 1435 1434 1433 1432 1432 1432 1431 1431 1431 1431 1431 1430 1429 1429 1429 1430 1430 1429 1429 1429 1428 1427 1426 1424 1421 1420 1420 1418 1415 1413 1411 1410 1409 1408 1407
1430 1431 1431 1431 1431 1431 1431 1431 1431 1430 1428 1428 1427 1427 1427 1426 1426 1426 1426 1425 1424 1424 1424 1425 1425 1425 1424 1424 1424 1423 1422 1420 1418 1416 1416 1415 1413 1411 1408 1406 1406 1405 1404